User: anonymous   Login
Location: Unspecified
(0.0000°N, 0.0000°E)
Time: 23:34:26
(UTC+00:00)
Language:

USA 48 - Orbit

View from above orbital plane
View from above orbital plane
View from above satellite
View from above satellite

Ground track
Ground track

The orbit data is extracted from the following two-line orbital elements,

1 20355U 89090B   18118.03987383 0.00000000  00000-0  00000-0 0    04
2 20355  18.2245  11.6658 0283434  29.5978 331.9891  1.00722336    08
Epoch (UTC): 28 April 2018 00:57:25
Eccentricity: 0.0283434
inclination: 18.2245°
perigee height: 34469 km
apogee height: 36852 km
right ascension of ascending node: 11.6658°
argument of perigee: 29.5978°
revolutions per day: 1.00722336
mean anomaly at epoch: 331.9891°
orbit number at epoch: 0

The dashed part of the orbit path shows where the satellite is in the earth's shadow,  

DLR